HEALTHSAT 1

导读

**HEALTHSAT 1卫星**是美国于**1993年9月26日**发射的一颗卫星,名称中的“HEALTH”指向其潜在的医疗健康服务相关定位。作为美国较早以健康领域命名的卫星,它的发射体现了航天技术在公共卫生与医疗服务领域的早期探索,是航天技术跨界应用的一次实践尝试,见证了航天服务民生领域的发展历程。

基本信息
目录编号:
22827
目录名称:
HEALTHSAT 1
国际标识:
1993-061E
轨道中心:
EARTH
卫星名称:
HEALTHSAT 1
卫星全名:
--
卫星状态:
在轨 (已飞行12038 天)
发射日期:
1993-09-26 UTC
国别 :
美国 (US)
星等 :
--
轨道信息
数据来源 国际轨道数据
星历时间: 2026-09-10T06:25:20+0800
1天前
查看轨道信息
半长轴: 7161.279km
偏心率: 0.0009702
轨道倾角: 98.634°
近地点辐角 133.076°
升交点赤经 321.062°
平近点角 41.937°
近地点: 776.194km
远地点: 790.09km
周期: 100.518分钟
每日圈数: 14.325735
详细信息
使用方式:
暂无
2D轨道图
3D轨道图
轨道高度分析图
轨道倾角分析图
轨道综合分析图
查看轨道综合分析图
交会数据列表
事件ID 空间交会对象 最接近时刻(TCA) 交会距离 交会风险概率(CRP) 交会风险指数(CRI) 操作
CDM_260906-114402-282703-445929
2026-09-06T
11:44:57+0000
0.622 km
远距离
1.19605E-4 高风险 0.77
CDM_260912-134402-282704-192523
2026-09-12T
13:44:33+0000
1.533 km
极远距离
4.928941E-6 低风险 0.49
CDM_260910-053202-282704-233327
2026-09-10T
05:32:34+0000
1.858 km
极远距离
2.296999E-6 低风险 0.42
CDM_260911-215101-915002-282722
2026-09-11T
21:51:28+0000
2.387 km
极远距离
1.648786E-6 低风险 0.39
CDM_260905-013202-282703-026424
2026-09-05T
01:32:15+0000
2.556 km
极远距离
4.685239E-7 极低风险 0.28
与全量物体交会距离演化趋势
与全量物体交会风险概率演化趋势